Wind_Speed
17 17 18 19 19 20 20 20 20 20 19 19 19 20 21 20 20 21 21 21 22 22 22 23 23 24 25 26 27 27 28 28 29 30 31 31 32 32
20 21 21 22 22 22 23 23 23 23 23 23 22 22 23 23 23 24 24 23 24 24 24 24 25 25 26 27 28 29 30 30 30 31 32 33 33 34
23 23 24 24 25 25 25 25 26 26 26 27 26 25 25 26 25 26 26 26 27 27 27 27 27 27 28 29 29 30 31 32 32 33 33 33 34 35
25 26 26 27 27 28 28 28 29 29 29 30 30 29 28 28 28 29 29 28 28 29 30 30 30 30 29 30 30 31 31 32 33 34 35 35 36 36
28 28 28 29 30 30 30 31 32 32 32 32 33 33 32 31 31 31 32 31 31 31 31 31 32 32 32 32 32 32 33 33 34 35 36 37 37 38
30 30 31 32 32 33 33 34 35 35 35 35 35 35 35 35 34 34 34 34 34 34 34 33 34 34 34 34 34 34 35 35 35 36 37 38 38 39
33 33 33 34 35 36 37 37 38 38 38 38 38 38 38 38 38 37 37 36 36 37 36 36 36 35 35 36 36 36 36 36 36 37 37 38 39 40
35 36 36 36 37 38 39 40 41 41 40 40 40 40 40 41 41 40 40 39 38 39 39 38 38 37 37 37 37 37 38 38 38 38 38 39 39 40
37 38 38 39 40 40 41 42 43 44 45 44 44 42 43 44 45 44 43 42 41 41 42 40 40 39 39 39 39 39 39 40 40 40 40 40 40 41
40 41 42 42 43 44 45 45 45 45 46 48 48 46 46 47 48 48 47 46 45 44 45 44 43 42 42 41 41 41 40 41 41 41 41 41 41 42
44 44 45 46 46 47 48 49 49 49 49 50 50 50 50 50 50 51 50 49 48 46 46 47 46 46 45 43 43 43 42 42 42 42 42 43 43 43
46 46 48 49 50 51 51 52 52 52 54 54 54 53 53 52 53 53 53 53 52 50 48 50 49 48 47 45 45 45 44 43 43 43 43 44 45 45
49 50 51 52 53 54 55 56 56 57 57 58 58 58 58 57 56 56 56 56 56 54 52 53 52 51 50 48 47 46 46 45 44 43 43 44 45 45
53 54 55 57 58 59 60 61 61 62 63 63 63 62 62 62 61 60 59 59 58 57 55 55 54 53 52 50 49 47 47 46 46 45 44 44 45 45
57 59 60 62 63 64 65 66 67 67 67 67 67 66 66 66 65 65 63 61 60 58 57 56 57 56 54 52 51 49 48 47 46 46 45 45 44 44
62 64 65 66 68 69 70 70 70 71 71 71 70 69 69 68 68 67 66 64 63 61 59 57 57 57 56 54 53 51 49 47 46 46 46 45 44 43
67 68 70 71 71 72 72 72 72 71 71 70 69 69 68 67 66 65 64 63 63 61 59 57 56 56 56 55 53 51 49 48 47 47 46 45 43 43
72 72 73 73 72 71 70 69 68 67 66 66 66 65 64 63 62 61 60 60 60 58 56 55 55 54 54 52 50 50 49 47 46 45 44 43 42 42
70 69 68 67 65 64 63 61 61 60 60 60 59 58 57 57 56 55 55 56 55 55 54 53 54 54 53 51 48 48 48 46 45 44 43 42 41 41
63 62 60 58 57 56 55 54 53 52 52 51 51 51 51 50 50 49 50 50 51 51 51 51 51 51 50 49 47 46 45 45 43 42 41 41 40 40
55 53 52 51 49 48 46 45 44 44 44 44 43 43 43 44 43 43 44 44 44 44 45 46 46 47 48 47 46 45 44 44 43 42 41 41 41 40
47 46 44 43 41 40 39 38 38 37 37 37 37 36 36 36 35 36 37 38 38 39 40 40 41 42 43 43 43 43 43 43 42 41 40 40 40 40
41 39 38 37 36 35 35 34 33 32 31 30 29 29 29 30 29 29 30 30 32 34 35 35 36 36 37 37 38 38 39 39 39 38 38 38 38 37
Wind_Direction
293 294 295 296 296 297 297 298 297 297 297 297 297 297 296 296 295 293 291 288 286 283 281 278 276 274 273 271 269 267 265 264 263 262 260 259 259 259
290 291 292 293 293 293 293 293 294 294 295 295 293 292 292 292 291 290 289 287 286 284 282 280 278 276 274 272 270 268 267 265 264 263 262 261 260 260
290 291 291 291 291 291 291 291 291 291 292 293 293 291 290 290 290 288 286 285 285 284 283 282 280 278 276 273 272 270 268 267 265 264 263 262 262 260
289 290 290 290 289 289 289 289 289 289 289 289 290 289 288 287 288 288 286 283 282 281 281 281 281 279 278 276 274 272 270 268 267 265 263 263 262 261
287 288 288 288 288 288 287 288 288 288 287 287 287 287 287 286 286 285 285 283 281 279 278 278 279 279 278 276 275 273 271 270 268 266 265 264 263 262
285 286 287 287 286 286 286 286 287 287 286 285 285 285 285 285 285 284 284 283 282 280 278 277 277 277 277 276 275 274 273 271 270 269 267 266 264 264
285 285 285 285 285 285 285 285 285 286 286 285 284 283 283 283 283 283 282 281 281 280 279 278 276 276 276 275 275 274 273 271 270 269 268 268 267 265
284 284 284 285 286 286 285 285 285 285 284 284 283 282 282 282 282 282 282 281 280 280 279 278 277 276 274 273 273 273 273 272 271 270 269 269 268 267
284 284 285 285 285 284 283 283 284 285 284 284 283 283 282 281 281 281 281 281 281 280 279 278 277 276 275 274 273 272 272 272 272 271 271 270 269 268
285 285 285 285 285 284 284 283 283 283 283 283 283 282 282 281 281 281 281 280 279 280 279 278 277 277 275 275 274 273 272 271 272 271 271 270 270 269
286 285 286 285 285 284 284 284 284 284 282 281 281 281 280 281 281 281 280 279 279 278 277 277 277 276 276 276 275 274 272 272 272 272 271 271 271 270
287 287 286 286 286 285 285 284 284 283 282 281 281 280 280 279 279 279 279 279 278 277 276 276 275 275 275 274 274 274 273 272 272 272 272 272 272 271
288 288 287 287 287 287 286 285 284 283 281 281 281 280 280 279 278 277 277 277 277 277 276 275 275 275 274 273 273 272 272 272 272 272 273 273 272 272
289 289 289 288 288 287 286 285 284 283 282 281 280 279 279 278 277 276 275 274 275 275 274 274 274 274 273 272 272 271 271 272 272 272 271 271 271 271
289 289 289 288 287 287 286 285 284 283 282 281 280 279 278 277 276 275 274 273 272 272 271 271 272 272 272 272 272 271 271 271 271 271 270 270 269 269
290 289 289 288 287 286 285 284 284 283 282 280 279 278 277 276 275 274 273 272 271 269 268 268 268 269 270 271 271 270 270 270 270 269 269 269 269 268
290 289 289 288 287 286 285 284 283 282 281 280 279 278 277 275 273 272 270 268 267 266 266 265 264 264 265 267 268 268 269 268 268 268 268 268 267 267
292 291 290 289 288 287 286 284 283 282 281 280 279 277 275 273 272 270 267 266 264 263 262 261 261 261 261 261 263 264 265 266 265 266 267 267 266 266
293 292 291 290 289 288 286 285 284 283 281 279 278 276 274 272 269 267 265 263 262 260 258 257 258 258 258 259 259 261 262 263 264 265 265 265 265 265
293 293 292 291 290 289 287 286 285 283 282 280 277 275 273 271 269 266 263 262 259 258 256 254 254 255 256 257 256 256 258 260 261 262 263 263 264 264
294 294 293 293 292 291 289 288 287 286 284 282 280 277 273 270 269 266 263 261 259 257 255 254 253 254 255 254 254 255 257 258 258 258 260 262 263 264
297 296 296 295 294 293 292 291 289 288 287 285 282 279 274 271 270 267 264 261 257 254 254 253 253 253 253 253 255 255 255 256 255 256 259 261 261 263
299 298 297 297 296 295 295 294 294 292 289 287 284 280 276 272 270 269 266 260 256 254 254 253 251 250 252 253 254 253 253 254 255 257 259 259 260 261
Height
5872 5872 5871 5871 5870 5869 5868 5867 5866 5865 5865 5864 5863 5862 5860 5860 5859 5858 5858 5858 5857 5857 5857 5857 5857 5857 5858 5858 5859 5860 5861 5862 5863 5864 5865 5866 5868 5870
5868 5868 5867 5866 5865 5864 5863 5862 5861 5860 5859 5859 5858 5857 5856 5855 5854 5853 5852 5852 5851 5851 5850 5850 5850 5850 5851 5851 5852 5852 5853 5854 5855 5856 5857 5858 5860 5861
5863 5862 5861 5861 5860 5859 5858 5857 5856 5855 5854 5852 5852 5851 5850 5849 5848 5847 5846 5846 5845 5844 5843 5843 5843 5843 5843 5843 5844 5844 5844 5845 5846 5847 5848 5849 5851 5852
5857 5856 5855 5854 5853 5852 5851 5850 5849 5848 5847 5846 5845 5844 5844 5842 5841 5840 5839 5839 5838 5837 5836 5836 5835 5835 5835 5835 5835 5835 5836 5836 5837 5838 5839 5840 5841 5842
5851 5850 5849 5847 5846 5845 5844 5842 5841 5840 5839 5838 5837 5836 5835 5834 5834 5833 5831 5831 5830 5829 5829 5828 5827 5827 5827 5826 5826 5826 5827 5827 5827 5828 5829 5830 5831 5832
5843 5842 5841 5840 5839 5837 5836 5834 5833 5832 5830 5830 5829 5827 5826 5825 5825 5824 5823 5822 5821 5820 5820 5820 5819 5818 5817 5817 5817 5817 5817 5817 5817 5818 5818 5819 5820 5821
5835 5834 5832 5831 5830 5828 5827 5825 5824 5822 5821 5820 5819 5818 5817 5815 5814 5814 5813 5812 5812 5810 5810 5809 5809 5809 5808 5807 5806 5806 5806 5806 5807 5807 5807 5808 5809 5810
5826 5825 5823 5822 5820 5818 5816 5815 5813 5812 5811 5810 5808 5808 5806 5804 5803 5802 5801 5801 5801 5800 5799 5799 5798 5798 5797 5797 5796 5796 5795 5795 5795 5796 5796 5797 5797 5798
5816 5814 5813 5811 5809 5808 5806 5804 5802 5800 5799 5798 5797 5796 5794 5792 5790 5790 5789 5788 5788 5787 5786 5787 5786 5786 5785 5785 5784 5785 5784 5783 5783 5783 5784 5784 5785 5785
5804 5803 5801 5800 5797 5795 5793 5792 5791 5789 5787 5784 5783 5782 5781 5779 5777 5776 5775 5775 5775 5775 5772 5773 5773 5773 5772 5772 5772 5772 5772 5771 5771 5771 5771 5771 5772 5772
5792 5790 5788 5786 5784 5782 5780 5778 5776 5775 5773 5771 5769 5768 5766 5765 5763 5761 5761 5760 5761 5761 5759 5758 5759 5758 5758 5759 5758 5758 5758 5758 5758 5758 5758 5758 5758 5759
5778 5776 5773 5771 5769 5767 5765 5763 5761 5759 5757 5755 5753 5752 5751 5750 5748 5746 5745 5744 5744 5745 5745 5743 5743 5743 5744 5744 5744 5743 5744 5744 5744 5744 5744 5744 5744 5744
5764 5761 5758 5755 5753 5750 5748 5746 5744 5741 5739 5738 5736 5735 5733 5732 5732 5730 5728 5727 5726 5728 5729 5726 5726 5726 5727 5728 5729 5728 5728 5729 5730 5730 5729 5729 5729 5730
5748 5745 5742 5739 5736 5733 5730 5727 5724 5721 5720 5718 5717 5716 5714 5713 5712 5711 5710 5709 5708 5709 5710 5708 5708 5709 5710 5710 5712 5713 5713 5713 5714 5715 5715 5715 5715 5715
5731 5728 5724 5721 5717 5714 5711 5707 5703 5700 5698 5696 5695 5694 5693 5691 5690 5689 5689 5689 5689 5690 5691 5691 5690 5691 5691 5693 5694 5696 5697 5698 5698 5698 5699 5700 5700 5701
5713 5709 5705 5701 5696 5692 5689 5685 5681 5677 5674 5672 5670 5670 5668 5667 5666 5666 5666 5666 5667 5669 5671 5672 5672 5672 5673 5674 5676 5678 5680 5681 5682 5682 5683 5684 5685 5686
5691 5688 5683 5678 5674 5669 5664 5660 5656 5653 5649 5647 5645 5644 5643 5642 5642 5642 5642 5642 5644 5647 5650 5652 5653 5654 5655 5656 5658 5660 5662 5664 5665 5666 5667 5668 5670 5671
5668 5664 5659 5653 5648 5644 5639 5635 5631 5628 5624 5621 5620 5618 5618 5618 5618 5618 5618 5619 5621 5624 5628 5632 5633 5634 5636 5639 5642 5643 5645 5647 5649 5650 5651 5653 5655 5657
5645 5640 5634 5629 5624 5620 5615 5612 5609 5605 5602 5599 5596 5595 5595 5594 5595 5595 5596 5597 5600 5603 5607 5611 5613 5615 5617 5622 5626 5627 5629 5631 5633 5635 5636 5638 5640 5642
5624 5618 5613 5608 5604 5599 5595 5592 5589 5585 5582 5578 5576 5575 5574 5574 5574 5575 5577 5578 5581 5584 5588 5592 5595 5598 5601 5605 5608 5611 5613 5616 5618 5620 5622 5623 5626 5628
5605 5600 5595 5590 5586 5582 5578 5574 5571 5568 5565 5562 5560 5558 5557 5556 5557 5558 5560 5562 5564 5567 5570 5575 5578 5581 5584 5587 5591 5596 5599 5601 5603 5605 5608 5610 5612 5614
5588 5584 5579 5575 5571 5567 5564 5561 5557 5555 5551 5548 5546 5544 5543 5543 5544 5545 5546 5548 5550 5553 5557 5560 5564 5567 5570 5573 5577 5581 5585 5587 5589 5591 5594 5597 5598 5600
5575 5571 5567 5563 5559 5556 5552 5549 5546 5543 5540 5537 5535 5534 5533 5533 5533 5534 5535 5536 5538 5541 5545 5548 5551 5554 5557 5561 5564 5567 5571 5574 5576 5579 5582 5584 5586 5587